This is the latest recevied weather packets stored in our database for station/object KC8ZBC. If no packets are shown the sender has not sent any weather packets the latest 10 day(s).
| Time | Temp. | Humidity | Pressure | Rain* | Wind** | Luminosity | Snow |
|---|---|---|---|---|---|---|---|
| 1777727080 | 3.89° C | 69% | 992.6 hPa | 0 mm | - | 196 W/m² | - |
| 1777726778 | 3.89° C | 72% | 992.8 hPa | 0 mm | - | 230 W/m² | - |
| 1777726474 | 3.89° C | 72% | 992.6 hPa | 0 mm | - | 185 W/m² | - |
| 1777726171 | 3.89° C | 77% | 992.7 hPa | 0 mm | - | 168 W/m² | - |
| 1777725867 | 2.78° C | 76% | 992.7 hPa | 0 mm | - | 160 W/m² | - |
| 1777725566 | 2.78° C | 76% | 992.7 hPa | 0 mm | - | 165 W/m² | - |
| 1777725262 | 2.22° C | 77% | 992.5 hPa | 0 mm | - | 109 W/m² | - |
| 1777724960 | 2.22° C | 79% | 992.7 hPa | 0 mm | - | 65 W/m² | - |
| 1777724656 | 2.22° C | 79% | 992.6 hPa | 0 mm | - | 29 W/m² | - |
| 1777724354 | 2.22° C | 81% | 992.6 hPa | 0 mm | - | 28 W/m² | - |
| 1777724051 | 1.67° C | 82% | 992.5 hPa | 0 mm | - | 27 W/m² | - |
| 1777723748 | 1.67° C | 82% | 992.8 hPa | 0 mm | - | 26 W/m² | - |
| 1777723444 | 1.67° C | 84% | 992.6 hPa | 0 mm | - | 26 W/m² | - |
| 1777723142 | 1.67° C | 85% | 992.7 hPa | 0 mm | - | 23 W/m² | - |
| 1777722839 | 1.67° C | 87% | 992.6 hPa | 0 mm | - | 44 W/m² | - |
| 1777722535 | 1.11° C | 90% | 992.6 hPa | 0 mm | - | 34 W/m² | - |
| 1777722232 | 1.11° C | 92% | 992.5 hPa | 0 mm | - | 33 W/m² | - |
| 1777721929 | 1.11° C | 93% | 992.6 hPa | 0 mm | - | 22 W/m² | - |
| 1777721626 | 1.11° C | 93% | 992.4 hPa | 0 mm | - | 17 W/m² | - |
| 1777721325 | 1.11° C | 94% | 992.5 hPa | 0 mm | - | 21 W/m² | - |
| 1777721022 | 1.11° C | 94% | 992.4 hPa | 0 mm | - | 22 W/m² | - |
| 1777720719 | 0.56° C | 94% | 992.4 hPa | 0 mm | - | 15 W/m² | - |
| 1777720416 | 0.56° C | 95% | 992.2 hPa | 0 mm | - | 16 W/m² | - |
| 1777720114 | 0.56° C | 95% | 992.4 hPa | 0 mm | - | 13 W/m² | - |
| 1777719812 | 0.56° C | 95% | 992.4 hPa | 0 mm | - | 15 W/m² | - |
* Rain latest hour (hover to see other rain measurements)
** Current wind speed in m/s (hover to see current wind gust speed)